Total_Precipitation_Accumulation
0.52 0.42 0.50 0.57 0.51 0.53 0.73 0.76 0.66 0.37 0.28 0.28 0.27 0.28 0.25 0.23 0.21 0.19 0.22 0.27 0.32 0.39 0.44 0.54 0.69 0.86 1.06 1.08 0.97 0.98 1.06 1.21 1.37 1.43 1.37 1.35 1.47 1.61 1.68 1.71 1.71 1.71 1.72 1.65
0.51 0.35 0.39 0.42 0.36 0.38 0.44 0.42 0.40 0.29 0.31 0.27 0.25 0.26 0.26 0.25 0.23 0.22 0.24 0.28 0.33 0.39 0.42 0.50 0.68 0.87 1.05 1.14 1.14 1.11 1.21 1.29 1.39 1.50 1.49 1.45 1.48 1.62 1.75 1.79 1.83 1.81 1.74 1.68
0.76 0.43 0.64 0.67 0.39 0.36 0.38 0.35 0.36 0.36 0.32 0.26 0.27 0.29 0.32 0.31 0.30 0.30 0.29 0.31 0.36 0.40 0.44 0.52 0.72 0.90 1.02 1.10 1.19 1.27 1.34 1.36 1.34 1.42 1.49 1.46 1.43 1.52 1.68 1.74 1.74 1.76 1.72 1.65
1.09 0.82 1.17 0.61 0.29 0.28 0.30 0.34 0.38 0.39 0.33 0.29 0.30 0.32 0.34 0.35 0.35 0.34 0.35 0.37 0.39 0.43 0.45 0.50 0.65 0.77 0.85 0.98 1.08 1.20 1.30 1.36 1.35 1.34 1.40 1.47 1.46 1.40 1.45 1.51 1.59 1.59 1.53 1.48
1.45 1.07 0.65 0.29 0.25 0.32 0.37 0.44 0.44 0.40 0.34 0.30 0.27 0.26 0.31 0.32 0.33 0.34 0.36 0.40 0.40 0.42 0.48 0.52 0.60 0.66 0.72 0.83 0.97 1.06 1.15 1.22 1.28 1.27 1.27 1.32 1.40 1.34 1.29 1.31 1.36 1.40 1.38 1.34
1.56 1.17 0.61 0.37 0.25 0.26 0.34 0.51 0.42 0.37 0.36 0.34 0.35 0.50 0.47 0.39 0.32 0.30 0.31 0.34 0.36 0.37 0.43 0.50 0.60 0.62 0.67 0.75 0.84 0.97 1.01 1.01 1.03 1.08 1.14 1.13 1.13 1.15 1.13 1.16 1.21 1.23 1.28 1.29
1.31 1.04 0.47 0.26 0.19 0.23 0.54 0.69 0.44 0.40 0.39 0.40 0.50 0.61 0.50 0.39 0.34 0.30 0.29 0.28 0.30 0.31 0.38 0.48 0.59 0.61 0.64 0.71 0.77 0.87 0.92 0.87 0.86 0.92 0.98 1.02 1.05 1.06 1.03 1.04 1.08 1.15 1.21 1.24
1.00 1.15 0.61 0.26 0.25 0.48 0.67 0.45 0.40 0.40 0.39 0.41 0.39 0.35 0.33 0.31 0.30 0.29 0.27 0.26 0.28 0.30 0.36 0.43 0.53 0.59 0.62 0.71 0.76 0.82 0.87 0.85 0.82 0.86 0.90 0.92 0.97 1.06 1.05 1.06 1.11 1.12 1.16 1.24
0.77 0.70 0.45 0.37 0.43 0.45 0.40 0.37 0.35 0.38 0.38 0.39 0.36 0.31 0.29 0.27 0.26 0.26 0.26 0.27 0.29 0.32 0.37 0.39 0.43 0.49 0.56 0.63 0.68 0.75 0.82 0.83 0.84 0.87 0.90 0.93 0.97 1.03 1.12 1.13 1.15 1.16 1.14 1.17
0.50 0.41 0.38 0.38 0.36 0.34 0.31 0.32 0.31 0.32 0.35 0.35 0.33 0.28 0.26 0.23 0.22 0.22 0.23 0.25 0.30 0.31 0.33 0.37 0.37 0.42 0.48 0.53 0.59 0.68 0.77 0.81 0.83 0.86 0.90 0.95 0.97 1.00 1.07 1.15 1.21 1.23 1.18 1.13
0.36 0.28 0.28 0.31 0.32 0.30 0.25 0.22 0.21 0.20 0.22 0.25 0.25 0.25 0.24 0.23 0.23 0.24 0.25 0.25 0.25 0.28 0.31 0.34 0.35 0.39 0.42 0.44 0.51 0.61 0.66 0.71 0.79 0.83 0.85 0.90 0.92 0.95 0.99 1.01 1.19 1.40 1.30 1.25
0.32 0.23 0.23 0.24 0.22 0.20 0.20 0.18 0.19 0.19 0.17 0.16 0.19 0.21 0.21 0.23 0.25 0.26 0.27 0.26 0.25 0.25 0.26 0.27 0.30 0.35 0.39 0.39 0.43 0.51 0.58 0.62 0.71 0.78 0.82 0.84 0.87 0.95 0.99 0.99 1.03 1.04 1.07 1.16
0.21 0.17 0.16 0.15 0.13 0.12 0.14 0.16 0.17 0.17 0.16 0.16 0.17 0.19 0.20 0.22 0.23 0.23 0.24 0.24 0.25 0.24 0.24 0.25 0.26 0.31 0.38 0.40 0.39 0.44 0.53 0.60 0.65 0.69 0.75 0.80 0.81 0.86 0.91 0.94 0.92 0.90 0.91 0.96
0.14 0.14 0.16 0.13 0.12 0.12 0.13 0.14 0.14 0.14 0.14 0.14 0.15 0.16 0.18 0.19 0.20 0.20 0.22 0.23 0.22 0.21 0.21 0.22 0.23 0.27 0.33 0.37 0.38 0.41 0.49 0.58 0.63 0.66 0.72 0.77 0.78 0.81 0.84 0.89 0.90 0.86 0.86 0.92
0.13 0.14 0.14 0.13 0.12 0.12 0.12 0.12 0.13 0.12 0.11 0.11 0.12 0.14 0.16 0.18 0.19 0.21 0.21 0.20 0.18 0.17 0.19 0.20 0.21 0.25 0.28 0.31 0.34 0.39 0.45 0.54 0.62 0.66 0.69 0.74 0.74 0.77 0.81 0.81 0.80 0.79 0.82 0.92
0.14 0.13 0.13 0.12 0.12 0.12 0.12 0.12 0.14 0.13 0.11 0.10 0.11 0.14 0.16 0.18 0.19 0.19 0.18 0.17 0.16 0.16 0.18 0.20 0.22 0.25 0.27 0.29 0.33 0.37 0.43 0.55 0.65 0.69 0.70 0.72 0.74 0.76 0.79 0.79 0.75 0.74 0.80 0.87
0.16 0.14 0.12 0.11 0.10 0.11 0.12 0.13 0.14 0.14 0.12 0.11 0.13 0.15 0.17 0.17 0.17 0.18 0.17 0.18 0.17 0.17 0.19 0.20 0.23 0.25 0.26 0.29 0.34 0.37 0.42 0.50 0.61 0.67 0.69 0.71 0.76 0.78 0.79 0.81 0.81 0.78 0.76 0.81
0.18 0.18 0.17 0.16 0.15 0.14 0.14 0.13 0.13 0.14 0.14 0.13 0.15 0.17 0.19 0.19 0.20 0.19 0.19 0.19 0.18 0.18 0.19 0.21 0.24 0.26 0.26 0.29 0.34 0.36 0.42 0.49 0.58 0.66 0.69 0.72 0.79 0.81 0.81 0.82 0.80 0.80 0.75 0.77
0.15 0.16 0.16 0.16 0.18 0.18 0.16 0.13 0.13 0.14 0.15 0.16 0.17 0.20 0.21 0.22 0.22 0.22 0.21 0.19 0.19 0.19 0.21 0.22 0.27 0.26 0.26 0.30 0.39 0.43 0.49 0.55 0.61 0.63 0.65 0.75 0.79 0.78 0.80 0.82 0.83 0.81 0.77 0.78
0.15 0.15 0.16 0.18 0.18 0.19 0.18 0.16 0.15 0.16 0.17 0.18 0.19 0.21 0.23 0.24 0.24 0.24 0.23 0.22 0.22 0.24 0.23 0.25 0.26 0.26 0.29 0.36 0.48 0.54 0.56 0.59 0.65 0.67 0.68 0.73 0.79 0.81 0.82 0.84 0.85 0.85 0.81 0.81
0.18 0.18 0.19 0.19 0.18 0.17 0.18 0.18 0.18 0.18 0.18 0.19 0.21 0.24 0.25 0.26 0.26 0.25 0.24 0.25 0.26 0.26 0.26 0.26 0.26 0.33 0.41 0.52 0.57 0.56 0.58 0.64 0.70 0.74 0.76 0.78 0.81 0.83 0.84 0.86 0.87 0.90 0.90 0.89
0.20 0.20 0.21 0.21 0.19 0.18 0.18 0.18 0.18 0.19 0.19 0.20 0.22 0.25 0.26 0.28 0.27 0.27 0.26 0.26 0.27 0.31 0.31 0.28 0.32 0.45 0.54 0.60 0.56 0.56 0.59 0.65 0.72 0.77 0.81 0.82 0.87 0.90 0.89 0.89 0.94 0.94 0.95 0.94
0.24 0.24 0.24 0.23 0.21 0.20 0.18 0.18 0.18 0.20 0.22 0.23 0.25 0.27 0.28 0.29 0.29 0.30 0.32 0.29 0.29 0.35 0.35 0.35 0.44 0.54 0.59 0.57 0.53 0.55 0.61 0.67 0.74 0.82 0.87 0.89 0.92 0.95 0.98 0.98 0.99 1.00 1.00 0.98
0.26 0.25 0.24 0.24 0.23 0.21 0.21 0.21 0.20 0.21 0.22 0.22 0.24 0.27 0.29 0.31 0.30 0.29 0.33 0.36 0.37 0.40 0.40 0.45 0.52 0.56 0.58 0.56 0.56 0.60 0.68 0.76 0.84 0.91 0.95 0.97 0.97 0.99 1.03 1.05 1.06 1.03 1.01 1.00
0.29 0.28 0.26 0.25 0.26 0.26 0.26 0.25 0.23 0.22 0.22 0.23 0.24 0.26 0.29 0.33 0.36 0.36 0.37 0.41 0.45 0.46 0.48 0.51 0.53 0.56 0.56 0.58 0.64 0.71 0.79 0.88 1.00 1.08 1.08 1.06 1.02 1.03 1.06 1.09 1.10 1.08 1.05 1.03
0.33 0.32 0.31 0.30 0.31 0.31 0.30 0.29 0.28 0.27 0.27 0.28 0.29 0.30 0.33 0.37 0.39 0.40 0.42 0.46 0.49 0.50 0.51 0.53 0.56 0.60 0.63 0.68 0.74 0.79 0.84 0.87 0.94 1.01 1.03 1.05 1.04 1.05 1.08 1.12 1.11 1.10 1.08 1.05
0.35 0.33 0.31 0.30 0.32 0.33 0.34 0.34 0.36 0.36 0.36 0.38 0.40 0.39 0.40 0.42 0.44 0.45 0.46 0.50 0.53 0.55 0.56 0.59 0.63 0.66 0.71 0.78 0.81 0.84 0.87 0.89 0.93 1.02 1.06 1.07 1.07 1.09 1.11 1.12 1.13 1.11 1.09 1.05